TimeEST,TemperatureF,Dew PointF,Humidity,Sea Level PressureIn,VisibilityMPH,Wind Direction,Wind SpeedMPH,Gust SpeedMPH,PrecipitationIn,Events,Conditions,WindDirDegrees,DateUTC
12:51 AM,37.9,25.0,60,29.88,10.0,WSW,10.4,-,N/A,,Overcast,240,2013-01-01 05:51:00
1:51 AM,37.9,27.0,65,29.88,10.0,WSW,8.1,-,N/A,,Overcast,240,2013-01-01 06:51:00
2:51 AM,37.9,28.0,68,29.87,10.0,WSW,10.4,-,N/A,,Overcast,240,2013-01-01 07:51:00
3:51 AM,37.9,28.9,70,29.88,10.0,SW,10.4,-,N/A,,Overcast,220,2013-01-01 08:51:00
4:51 AM,37.9,28.9,70,29.88,10.0,SW,9.2,-,N/A,,Overcast,220,2013-01-01 09:51:00
5:51 AM,39.0,28.0,65,29.87,10.0,WSW,9.2,-,N/A,,Overcast,250,2013-01-01 10:51:00
6:51 AM,39.0,27.0,62,29.88,10.0,WSW,9.2,-,N/A,,Overcast,250,2013-01-01 11:51:00
7:51 AM,37.9,28.0,68,29.88,10.0,SW,9.2,-,N/A,,Overcast,220,2013-01-01 12:51:00
8:51 AM,39.0,28.9,67,29.88,10.0,West,9.2,-,N/A,,Overcast,260,2013-01-01 13:51:00
9:51 AM,39.0,28.9,67,29.90,10.0,West,8.1,-,N/A,,Overcast,260,2013-01-01 14:51:00
10:51 AM,39.0,28.0,65,29.88,10.0,West,6.9,18.4,N/A,,Overcast,260,2013-01-01 15:51:00
11:51 AM,37.9,28.9,70,29.87,10.0,NNW,10.4,-,0.00,Rain,Light Rain,340,2013-01-01 16:51:00
12:51 PM,37.0,27.0,67,29.87,10.0,NW,8.1,-,0.00,,Overcast,310,2013-01-01 17:51:00
1:51 PM,37.0,27.0,67,29.84,10.0,WNW,4.6,-,N/A,,Overcast,290,2013-01-01 18:51:00
2:51 PM,37.9,24.1,57,29.84,10.0,WNW,11.5,-,N/A,,Overcast,300,2013-01-01 19:51:00
3:51 PM,37.9,21.0,51,29.88,10.0,NW,11.5,-,N/A,,Overcast,310,2013-01-01 20:51:00
4:51 PM,36.0,19.0,50,29.88,10.0,WNW,11.5,-,N/A,,Partly Cloudy,300,2013-01-01 21:51:00
5:51 PM,34.0,17.1,50,29.92,10.0,NNW,8.1,-,N/A,,Clear,330,2013-01-01 22:51:00
6:51 PM,33.1,15.1,48,29.95,10.0,NNW,10.4,-,N/A,,Clear,330,2013-01-01 23:51:00
7:51 PM,32.0,15.1,50,29.95,10.0,NNW,6.9,16.1,N/A,,Clear,330,2013-01-02 00:51:00
8:51 PM,30.0,12.0,47,29.98,10.0,NNW,11.5,17.3,N/A,,Clear,330,2013-01-02 01:51:00
9:51 PM,28.9,12.9,51,30.00,10.0,NNW,8.1,-,N/A,,Clear,330,2013-01-02 02:51:00
10:51 PM,27.0,10.0,49,30.01,10.0,NW,9.2,23.0,N/A,,Clear,320,2013-01-02 03:51:00
11:51 PM,26.1,9.0,49,30.01,10.0,NW,10.4,17.3,N/A,,Clear,320,2013-01-02 04:51:00